QPF
0.00 0.04 0.03 0.01 0.02 0.01 0.00 0.00 0.00 0.01 0.01 0.01 0.00 0.00 0.00 0.00 0.00 0.00 0.00 0.00 0.00 0.00 0.00 0.00 0.00 0.00 0.00 0.00 0.00 0.00 0.00 0.00 0.00
0.03 0.04 0.02 0.01 0.02 0.00 0.00 0.00 0.00 0.00 0.00 0.03 0.01 0.01 0.00 0.00 0.00 0.00 0.00 0.00 0.00 0.00 0.00 0.00 0.00 0.00 0.00 0.00 0.00 0.00 0.01 0.01 0.00
0.04 0.01 0.01 0.01 0.00 0.00 0.00 0.00 0.00 0.00 0.00 0.00 0.01 0.00 0.00 0.00 0.00 0.00 0.00 0.00 0.01 0.03 0.02 0.03 0.04 0.03 0.03 0.02 0.01 0.01 0.01 0.01 0.01
0.04 0.02 0.02 0.08 0.00 0.00 0.00 0.01 0.00 0.00 0.00 0.00 0.00 0.00 0.00 0.00 0.00 0.00 0.00 0.00 0.04 0.01 0.00 0.00 0.00 0.00 0.01 0.02 0.02 0.01 0.01 0.01 0.01
0.10 0.02 0.02 0.05 0.00 0.00 0.00 0.00 0.02 0.03 0.04 0.01 0.00 0.00 0.00 0.00 0.00 0.00 0.01 0.02 0.00 0.00 0.00 0.01 0.04 0.05 0.02 0.01 0.00 0.00 0.00 0.01 0.00
0.06 0.06 0.01 0.00 0.00 0.00 0.00 0.00 0.01 0.01 0.01 0.01 0.00 0.00 0.00 0.00 0.00 0.00 0.02 0.02 0.00 0.00 0.00 0.00 0.00 0.00 0.00 0.00 0.00 0.00 0.01 0.00 0.01
0.01 0.02 0.00 0.00 0.00 0.00 0.00 0.00 0.01 0.00 0.00 0.00 0.00 0.00 0.00 0.00 0.00 0.00 0.03 0.02 0.00 0.00 0.00 0.00 0.00 0.00 0.00 0.00 0.00 0.00 0.00 0.00 0.00
0.02 0.01 0.00 0.00 0.00 0.00 0.00 0.00 0.00 0.00 0.00 0.00 0.00 0.00 0.00 0.00 0.00 0.00 0.03 0.02 0.05 0.01 0.00 0.00 0.00 0.00 0.00 0.00 0.00 0.00 0.00 0.00 0.00
0.05 0.00 0.00 0.00 0.00 0.00 0.00 0.00 0.00 0.00 0.00 0.00 0.00 0.00 0.00 0.00 0.00 0.00 0.01 0.06 0.07 0.02 0.00 0.00 0.00 0.00 0.00 0.00 0.00 0.00 0.00 0.00 0.00
0.07 0.08 0.04 0.01 0.00 0.00 0.00 0.00 0.00 0.00 0.01 0.02 0.00 0.00 0.00 0.00 0.01 0.00 0.00 0.08 0.08 0.01 0.00 0.00 0.00 0.00 0.00 0.00 0.00 0.00 0.00 0.00 0.00
0.83 0.77 0.20 0.08 0.05 0.02 0.00 0.00 0.00 0.00 0.01 0.01 0.00 0.00 0.00 0.00 0.00 0.00 0.00 0.04 0.03 0.02 0.00 0.00 0.00 0.00 0.00 0.00 0.00 0.00 0.00 0.00 0.00
0.16 0.57 0.47 0.38 0.23 0.13 0.10 0.06 0.02 0.00 0.00 0.00 0.00 0.00 0.00 0.00 0.01 0.00 0.00 0.02 0.03 0.02 0.01 0.01 0.00 0.00 0.00 0.00 0.00 0.00 0.00 0.00 0.00
0.01 0.03 0.03 0.07 0.10 0.08 0.08 0.09 0.05 0.00 0.00 0.00 0.00 0.00 0.00 0.01 0.01 0.00 0.00 0.00 0.00 0.01 0.03 0.02 0.01 0.00 0.00 0.00 0.00 0.00 0.00 0.00 0.00
0.01 0.02 0.01 0.01 0.03 0.05 0.02 0.01 0.00 0.00 0.00 0.00 0.00 0.00 0.00 0.01 0.01 0.00 0.00 0.00 0.00 0.00 0.02 0.02 0.01 0.00 0.00 0.00 0.00 0.00 0.00 0.00 0.00
0.01 0.01 0.02 0.04 0.07 0.03 0.01 0.02 0.01 0.01 0.00 0.00 0.00 0.00 0.00 0.00 0.00 0.00 0.00 0.00 0.00 0.00 0.01 0.01 0.00 0.00 0.00 0.00 0.00 0.00 0.00 0.00 0.00
0.02 0.01 0.02 0.02 0.02 0.03 0.07 0.07 0.04 0.03 0.02 0.03 0.04 0.01 0.00 0.01 0.01 0.02 0.01 0.00 0.00 0.00 0.00 0.00 0.00 0.00 0.00 0.00 0.00 0.00 0.00 0.00 0.00
0.02 0.01 0.01 0.02 0.02 0.01 0.04 0.05 0.04 0.06 0.10 0.21 0.21 0.15 0.08 0.04 0.02 0.02 0.01 0.00 0.00 0.01 0.00 0.00 0.00 0.00 0.00 0.00 0.00 0.00 0.00 0.00 0.00
0.01 0.02 0.01 0.02 0.03 0.02 0.03 0.04 0.04 0.02 0.03 0.08 0.17 0.20 0.16 0.10 0.13 0.08 0.04 0.02 0.00 0.00 0.00 0.00 0.00 0.00 0.00 0.00 0.00 0.00 0.00 0.00 0.00
0.01 0.02 0.01 0.02 0.02 0.01 0.01 0.01 0.03 0.03 0.02 0.06 0.04 0.02 0.02 0.03 0.05 0.03 0.02 0.02 0.01 0.00 0.00 0.00 0.00 0.00 0.00 0.00 0.00 0.00 0.00 0.00 0.00
0.00 0.02 0.03 0.02 0.02 0.01 0.01 0.01 0.02 0.01 0.02 0.04 0.06 0.06 0.03 0.01 0.01 0.02 0.06 0.06 0.05 0.04 0.01 0.00 0.00 0.01 0.00 0.00 0.00 0.00 0.00 0.00 0.00
MSLP
1016.71 1016.91 1017.05 1017.19 1017.35 1017.44 1017.58 1017.78 1017.96 1018.18 1018.28 1018.41 1018.57 1018.92 1019.18 1019.33 1019.43 1019.63 1019.87 1020.22 1020.40 1020.42 1020.57 1020.64 1020.77 1020.93 1021.10 1021.20 1021.30 1021.33 1021.46 1021.53 1021.76
1016.73 1016.95 1017.10 1017.29 1017.52 1017.57 1017.71 1017.89 1018.11 1018.28 1018.39 1018.49 1018.76 1019.03 1019.31 1019.56 1019.67 1019.62 1020.12 1020.41 1020.47 1020.59 1020.69 1020.82 1021.01 1021.13 1021.35 1021.55 1021.71 1021.90 1021.98 1022.07 1022.19
1016.79 1016.94 1017.15 1017.45 1017.62 1017.70 1017.80 1018.00 1018.15 1018.40 1018.49 1018.65 1019.01 1019.18 1019.27 1019.48 1019.85 1019.78 1020.11 1020.36 1020.49 1020.80 1021.07 1021.30 1021.42 1021.53 1021.70 1021.91 1022.07 1022.22 1022.42 1022.54 1022.73
1016.78 1016.99 1017.18 1017.65 1017.70 1017.79 1017.94 1018.06 1018.22 1018.39 1018.55 1018.85 1019.15 1019.28 1019.43 1019.73 1019.94 1020.05 1020.24 1020.53 1020.79 1020.90 1021.06 1021.55 1021.74 1021.91 1022.00 1022.34 1022.49 1022.65 1022.81 1022.95 1023.10
1016.64 1017.00 1017.36 1017.64 1017.68 1017.81 1018.03 1018.13 1018.25 1018.43 1018.61 1018.99 1019.29 1019.43 1019.56 1019.82 1019.96 1020.19 1020.41 1020.51 1020.83 1021.13 1021.33 1021.69 1021.99 1022.21 1022.50 1022.73 1022.86 1023.11 1023.20 1023.38 1023.56
1016.58 1016.89 1017.19 1017.33 1017.55 1017.74 1017.95 1018.13 1018.29 1018.56 1018.75 1019.16 1019.42 1019.59 1019.74 1019.83 1020.13 1020.29 1020.46 1020.64 1020.96 1021.32 1021.78 1022.06 1022.27 1022.59 1022.79 1023.01 1023.36 1023.52 1023.69 1023.84 1023.95
1016.64 1016.79 1016.94 1017.14 1017.35 1017.61 1017.77 1018.03 1018.31 1018.68 1019.01 1019.34 1019.54 1019.83 1019.93 1020.11 1020.21 1020.31 1020.53 1020.64 1021.01 1021.34 1021.88 1022.20 1022.47 1022.89 1023.17 1023.52 1023.65 1023.88 1024.06 1024.28 1024.33
1016.57 1016.95 1017.19 1017.40 1017.47 1017.70 1017.84 1018.06 1018.42 1018.83 1019.18 1019.45 1019.62 1019.80 1019.97 1020.05 1019.98 1020.28 1020.53 1020.62 1020.98 1021.29 1021.72 1022.36 1022.66 1023.07 1023.42 1023.78 1024.05 1024.31 1024.52 1024.66 1024.80
1016.57 1016.79 1017.23 1017.60 1017.82 1017.93 1018.04 1018.23 1018.43 1018.78 1019.00 1019.24 1019.51 1019.62 1019.87 1019.95 1019.96 1020.25 1020.45 1020.67 1021.12 1021.36 1021.77 1022.38 1022.71 1023.07 1023.50 1023.94 1024.25 1024.57 1024.75 1025.02 1025.15
1016.22 1016.68 1016.79 1017.34 1017.52 1018.09 1018.23 1018.19 1018.42 1018.72 1018.93 1019.13 1019.21 1019.53 1019.68 1019.87 1019.99 1020.29 1020.54 1020.77 1021.21 1021.43 1021.83 1022.26 1022.73 1023.08 1023.43 1023.94 1024.36 1024.68 1024.86 1025.01 1025.26
1016.94 1015.70 1015.97 1017.59 1017.49 1017.89 1018.13 1018.26 1018.11 1018.38 1018.66 1018.91 1019.02 1019.28 1019.70 1019.93 1020.08 1020.33 1020.64 1020.86 1021.31 1021.65 1021.88 1022.29 1022.73 1023.10 1023.43 1023.82 1024.49 1024.69 1024.94 1025.16 1025.29
1016.58 1016.21 1016.83 1016.83 1017.49 1017.80 1017.83 1017.98 1017.98 1017.91 1018.09 1018.97 1018.96 1018.98 1019.54 1019.96 1020.14 1020.45 1020.69 1021.07 1021.48 1021.75 1021.82 1022.26 1022.83 1023.32 1023.61 1024.02 1024.51 1024.98 1025.24 1025.34 1025.40
1016.89 1017.10 1017.12 1016.93 1017.33 1017.86 1017.30 1017.85 1017.97 1017.95 1018.44 1018.89 1019.34 1019.11 1019.40 1019.87 1020.29 1020.61 1020.84 1021.17 1021.65 1021.80 1022.04 1022.25 1022.63 1023.17 1023.70 1023.92 1024.35 1025.05 1025.41 1025.67 1025.77
1016.59 1017.10 1017.17 1017.22 1017.52 1017.75 1017.47 1017.69 1018.09 1018.10 1018.77 1019.42 1019.55 1019.54 1019.84 1020.06 1020.34 1020.85 1020.99 1021.14 1021.41 1021.85 1022.16 1022.41 1022.67 1023.13 1023.73 1024.00 1024.35 1024.82 1025.21 1025.56 1025.74
1016.59 1016.64 1016.82 1017.12 1017.34 1017.68 1017.78 1017.83 1018.23 1018.35 1018.90 1019.77 1020.15 1020.13 1020.21 1020.28 1020.53 1020.72 1021.01 1021.25 1021.40 1021.74 1022.12 1022.68 1022.99 1023.13 1023.60 1023.86 1024.19 1024.67 1025.12 1025.43 1025.64
1016.35 1016.31 1016.46 1016.82 1017.10 1017.37 1017.40 1017.85 1018.20 1018.83 1019.29 1019.47 1020.60 1020.88 1020.83 1020.89 1021.22 1020.73 1020.92 1021.26 1021.51 1021.87 1022.17 1022.47 1022.88 1023.09 1023.44 1023.88 1023.98 1024.48 1024.87 1025.29 1025.64
1016.04 1015.86 1015.97 1016.35 1016.88 1017.34 1017.43 1017.46 1018.19 1018.56 1018.80 1019.36 1019.96 1020.87 1021.05 1021.13 1021.85 1021.64 1021.49 1021.43 1021.43 1021.53 1021.88 1022.02 1022.60 1023.07 1023.38 1023.92 1024.14 1024.38 1024.67 1024.97 1025.41
1015.83 1015.60 1015.64 1016.00 1016.40 1016.92 1017.14 1017.24 1017.69 1017.99 1018.87 1018.79 1019.40 1020.07 1020.35 1021.35 1021.77 1021.90 1022.05 1021.98 1021.81 1021.52 1021.74 1022.20 1022.71 1023.29 1023.55 1023.33 1024.03 1024.41 1024.77 1024.92 1025.29
1015.69 1015.33 1015.36 1015.53 1016.06 1016.58 1016.73 1016.98 1017.28 1017.31 1017.98 1018.86 1019.06 1018.95 1019.55 1020.35 1021.93 1022.33 1022.30 1022.32 1022.26 1021.78 1021.76 1022.16 1022.77 1023.37 1024.03 1024.15 1024.40 1024.42 1024.76 1024.77 1025.18
1015.35 1015.20 1015.21 1015.29 1015.49 1016.01 1016.40 1016.69 1016.81 1017.16 1017.57 1017.88 1018.48 1018.68 1019.48 1019.65 1020.55 1021.56 1022.05 1022.42 1022.32 1022.60 1022.28 1022.22 1022.59 1023.27 1024.18 1024.32 1024.42 1024.87 1024.94 1025.03 1025.14
Thickness
5696 5696 5695 5696 5696 5696 5695 5694 5693 5692 5691 5690 5690 5687 5686 5685 5686 5684 5682 5680 5678 5679 5678 5678 5678 5677 5676 5676 5676 5676 5675 5676 5675
5693 5692 5692 5693 5692 5693 5693 5692 5690 5690 5689 5689 5688 5686 5685 5684 5682 5684 5680 5678 5677 5676 5676 5676 5675 5674 5673 5672 5671 5670 5670 5671 5671
5687 5688 5688 5688 5688 5689 5689 5688 5688 5686 5686 5686 5685 5684 5685 5682 5680 5682 5679 5677 5676 5674 5673 5672 5671 5670 5669 5668 5667 5666 5665 5665 5664
5683 5683 5684 5682 5683 5684 5684 5685 5684 5683 5683 5682 5681 5680 5681 5680 5678 5678 5677 5675 5673 5672 5671 5668 5666 5666 5665 5663 5662 5661 5660 5659 5658
5679 5678 5677 5676 5678 5680 5678 5679 5679 5679 5678 5676 5675 5675 5676 5676 5674 5674 5673 5672 5670 5668 5666 5665 5662 5661 5659 5658 5657 5655 5654 5652 5651
5675 5676 5673 5673 5675 5674 5674 5674 5674 5673 5673 5670 5669 5669 5671 5672 5670 5669 5669 5668 5666 5663 5660 5658 5657 5655 5654 5652 5650 5648 5647 5645 5645
5669 5670 5670 5670 5669 5669 5668 5668 5667 5667 5666 5664 5663 5662 5664 5665 5665 5664 5663 5663 5661 5660 5656 5653 5652 5649 5647 5645 5644 5642 5641 5639 5638
5663 5662 5660 5662 5664 5663 5662 5662 5660 5660 5659 5658 5658 5658 5658 5660 5661 5659 5658 5659 5656 5655 5653 5648 5646 5644 5641 5639 5637 5635 5633 5632 5630
5655 5655 5653 5652 5652 5654 5654 5654 5653 5653 5652 5653 5652 5652 5652 5655 5657 5654 5653 5652 5649 5649 5647 5643 5641 5638 5635 5633 5631 5628 5627 5625 5624
5649 5646 5646 5643 5644 5641 5641 5644 5644 5643 5643 5645 5646 5645 5647 5648 5650 5648 5646 5645 5643 5643 5640 5638 5635 5633 5632 5628 5625 5623 5621 5620 5618
5628 5631 5637 5631 5631 5628 5628 5631 5636 5636 5636 5638 5640 5640 5639 5639 5641 5641 5638 5637 5635 5635 5634 5632 5629 5626 5624 5622 5618 5616 5615 5613 5612
5624 5625 5614 5622 5621 5621 5622 5622 5624 5630 5630 5628 5632 5635 5633 5631 5631 5632 5630 5628 5625 5626 5627 5626 5622 5619 5617 5614 5611 5608 5606 5605 5605
5609 5610 5611 5615 5614 5610 5617 5618 5616 5620 5621 5619 5619 5624 5626 5623 5622 5621 5622 5621 5617 5617 5617 5617 5616 5612 5607 5607 5605 5600 5597 5596 5595
5602 5599 5601 5604 5603 5603 5608 5608 5606 5610 5607 5605 5609 5613 5612 5611 5610 5609 5610 5611 5612 5609 5608 5608 5608 5605 5597 5595 5595 5592 5591 5588 5587
5593 5593 5593 5593 5595 5594 5597 5599 5597 5600 5598 5592 5592 5597 5599 5599 5599 5599 5600 5600 5602 5601 5599 5596 5595 5595 5591 5585 5586 5584 5581 5578 5577
5585 5587 5586 5585 5586 5586 5588 5588 5589 5586 5585 5586 5581 5579 5583 5585 5585 5590 5591 5590 5590 5588 5588 5588 5585 5584 5582 5578 5576 5573 5572 5569 5566
5577 5579 5581 5580 5578 5577 5579 5581 5577 5578 5581 5578 5574 5573 5574 5573 5570 5573 5575 5576 5578 5579 5578 5580 5576 5573 5572 5566 5564 5562 5561 5559 5555
5567 5570 5572 5572 5572 5570 5571 5574 5572 5572 5566 5572 5570 5565 5574 5561 5559 5559 5559 5560 5564 5568 5568 5565 5564 5560 5560 5560 5555 5551 5549 5547 5544
5555 5559 5561 5564 5564 5561 5563 5565 5566 5567 5564 5558 5560 5564 5563 5562 5550 5546 5549 5549 5551 5556 5557 5555 5551 5548 5543 5542 5540 5539 5537 5536 5532
5544 5548 5550 5552 5556 5555 5554 5555 5558 5558 5557 5557 5553 5554 5549 5553 5549 5544 5539 5538 5540 5542 5545 5544 5541 5537 5529 5529 5527 5523 5523 5521 5520